College Station, TX

12:30 AM CDT on August 29, 2016 (GMT -0500)
Easterwood

Weather History for KCLL - September, 2012

Change the Weather History Date:

Friday, September 28, 2012

  Actual Average Record
Temperature  
Mean Temperature 81 °F 76 °F  
Max Temperature 92 °F 87 °F 103 °F (2005)
Min Temperature 69 °F 66 °F 46 °F (1942)
Degree Days  
Heating Degree Days 0 0  
Month to date heating degree days 0 0  
Since 1 July heating degree days 0 0  
Cooling Degree Days 16 11  
Month to date cooling degree days 472 428  
Year to date cooling degree days 3244 2774  
Growing Degree Days 30 (Base 50)    
Moisture  
Dew Point 68 °F    
Average Humidity 69    
Maximum Humidity 90    
Minimum Humidity 41    
Precipitation  
Precipitation T in 0.10 in 1.16 in (1960)
Month to date precipitation 0.53 2.97  
Year to date precipitation 32.06 28.49  
Sea Level Pressure  
Sea Level Pressure 29.98 in    
Wind  
Wind Speed 4 mph (ESE)    
Max Wind Speed 15 mph    
Max Gust Speed 18 mph    
Visibility 10 miles    
Events Rain    
T = Trace of Precipitation, MM = Missing Value Source: NWS Daily Summary

Daily Weather History Graph

Daily Weather History Graph

Search for Another Location

Airport or City:

Trip Planner

Search our weather history database for the weather conditions in past years. The results will help you decide how hot, cold, wet, or windy it might be!

Date:

Astronomy

Sep. 28, 2012 Rise Set
Actual Time 7:17 AM CDT 7:13 PM CDT
Civil Twilight 6:53 AM CDT 7:37 PM CDT
Nautical Twilight 6:25 AM CDT 8:05 PM CDT
Astronomical Twilight 5:57 AM CDT 8:33 PM CDT
Moon 6:15 PM CDT (9/28) 5:52 AM CDT (9/28)
Length of Visible Light 12h 44m
Length of Day
11h 56m
Waxing Gibbous, 98% of the Moon is Illuminated
Sep 28
Waxing Gibbous
Sep 29
Full
Oct 8
Last Quarter
Oct 15
New
Oct 21
First Quarter

Hourly Weather History & Observations

Time (CDT) Temp. Heat Index Dew Point Humidity Pressure Visibility Wind Dir Wind Speed Gust Speed Precip Events Conditions
12:53 AM 73.9 °F - 66.9 °F 79% 30.02 in 10.0 mi Calm Calm - N/A   Clear
1:53 AM 73.9 °F - 66.9 °F 79% 30.01 in 10.0 mi Calm Calm - N/A   Clear
2:53 AM 73.9 °F - 69.1 °F 85% 30.01 in 10.0 mi Calm Calm - N/A   Clear
3:53 AM 71.1 °F - 66.9 °F 87% 30.00 in 10.0 mi Calm Calm - N/A   Clear
4:53 AM 71.1 °F - 68.0 °F 90% 29.99 in 10.0 mi Calm Calm - N/A   Clear
5:53 AM 70.0 °F - 66.9 °F 90% 30.00 in 10.0 mi Calm Calm - N/A   Clear
6:53 AM 70.0 °F - 66.9 °F 90% 30.01 in 10.0 mi Calm Calm - N/A   Clear
7:53 AM 71.1 °F - 68.0 °F 90% 30.02 in 8.0 mi ENE 4.6 mph - N/A   Clear
8:53 AM 75.9 °F - 70.0 °F 82% 30.03 in 10.0 mi ENE 4.6 mph - N/A   Clear
9:53 AM 81.0 °F 85.2 °F 72.0 °F 74% 30.04 in 10.0 mi ESE 4.6 mph - N/A   Clear
10:53 AM 84.9 °F 89.4 °F 70.0 °F 61% 30.03 in 10.0 mi Calm Calm - N/A   Clear
11:53 AM 88.0 °F 91.4 °F 68.0 °F 51% 30.02 in 10.0 mi SSE 5.8 mph - N/A   Partly Cloudy
12:53 PM 91.0 °F 93.0 °F 64.9 °F 42% 29.99 in 10.0 mi SE 8.1 mph - N/A   Clear
1:53 PM 90.0 °F 91.7 °F 64.9 °F 43% 29.95 in 10.0 mi ESE 9.2 mph - N/A   Scattered Clouds
2:53 PM 90.0 °F 91.3 °F 64.0 °F 42% 29.93 in 10.0 mi ESE 6.9 mph - N/A   Mostly Cloudy
3:53 PM 91.0 °F 92.6 °F 64.0 °F 41% 29.91 in 10.0 mi ENE 6.9 mph - N/A   Clear
4:53 PM 90.0 °F 91.3 °F 64.0 °F 42% 29.91 in 10.0 mi ESE 6.9 mph - N/A   Clear
5:53 PM 89.1 °F 91.0 °F 64.9 °F 45% 29.91 in 10.0 mi East 9.2 mph - N/A   Partly Cloudy
6:53 PM 84.0 °F 88.4 °F 70.0 °F 63% 29.92 in 10.0 mi South 10.4 mph - N/A   Clear
7:53 PM 82.0 °F 85.9 °F 70.0 °F 67% 29.92 in 10.0 mi SSE 8.1 mph - N/A   Clear
8:53 PM 81.0 °F 84.9 °F 71.1 °F 72% 29.94 in 10.0 mi South 4.6 mph - N/A   Clear
9:53 PM 80.1 °F 83.8 °F 72.0 °F 76% 29.95 in 10.0 mi Calm Calm - N/A   Partly Cloudy
10:53 PM 79.0 °F - 73.0 °F 82% 29.95 in 10.0 mi Calm Calm - N/A   Scattered Clouds
11:53 PM 78.1 °F - 73.9 °F 87% 29.95 in 10.0 mi Calm Calm - 0.00 in Rain Light Rain